Content
SEND FEEDBACK

Daily
Averages
Monthly
Summary
United States of America

PUT IN BAY, OHIO


Home > North America > United States > Ohio
Elevation: 561 feet     Latitude: 41 39N     Longitude: 082 48W

WEATHER
 
SELECT A DAY
Number of Records: 122,510;   Date Range: 12/10/00 - 7/30/14
 
SHARE

PRINT THIS DATA

[ ← Previous Day ]
WEATHER ALMANAC - APRIL 20, 2013
[ Next Day → ]
[ °C ]   °F
Weather ElementAverageHighLow
Temperature36.8 °F41.2 °F (4:00 pm)31.3 °F (6:00 am)
Dewpoint23 °F30.7 °F (3:00 am)18.1 °F (12:00 pm)
Humidity56.8 %82 % (6:00 am)34 % (8:00 pm)
Barometer30.12 in30.44 in (11:00 pm)29.80 in (1:00 am)
Wind Speed11.6 mph21.9 mph (1:00 am)
Wind Gust31.1 mph (1:00 am)
Weather ElementAverage
Wind DirectionWNW (289.2 °)

Weather ElementTotal
Precipitation0.02 in
Heating Degree Days28.8 (Base 65)
Averaged from 25 records on April 20, 2013
WEATHER CONDITIONS BREAKOUT
WIND DIRECTION BREAKOUT
WEATHER BY HOUR - APRIL 20, 2013
[ °C ]   °F
Local TimeTemperatureDewpointHumidityBarometerVisibilityWind DirectionWind SpeedGust SpeedPrecipitationEventsConditions
1:00 AM37.8 °F28.8 °F70 %29.80 inWest (260°)21.9 mph31.1 mph
2:00 AM38.0 °F29.0 °F60 %29.81 inWSW (250°)21.9 mph
2:00 AM38.3 °F28.9 °F69 %29.81 inWSW (250°)21.9 mph28.8 mph
3:00 AM36.1 °F30.7 °F81 %29.83 inWest (270°)19.6 mph27.6 mph
4:00 AM34.9 °F28.2 °F77 %29.86 inWest (270°)13.8 mph21.9 mph
5:00 AM35.8 °F28.0 °F73 %29.88 inWest (270°)15.0 mph20.7 mph
6:00 AM31.3 °F26.4 °F82 %29.92 inWest (280°)11.5 mph19.6 mph0.02 in
7:00 AM32.9 °F23.0 °F67 %29.96 inWNW (290°)11.5 mph
8:00 AM33.0 °F22.0 °F51 %30.01 inWNW (290°)11.5 mph
8:00 AM33.4 °F21.6 °F62 %30.01 inWNW (290°)11.5 mph19.6 mph
9:00 AM33.6 °F19.4 °F56 %30.05 inWNW (300°)12.7 mph23.0 mph
12:00 PM36.3 °F18.1 °F48 %30.17 inWNW (290°)12.7 mph21.9 mph
1:00 PM37.9 °F23.0 °F55 %30.18 inWest (270°)11.5 mph20.7 mph
2:00 PM39.0 °F21.0 °F36 %30.21 inWest (270°)12.7 mph
2:00 PM38.7 °F21.4 °F50 %30.21 inWest (270°)12.7 mph
3:00 PM39.7 °F21.6 °F48 %30.23 inWNW (290°)12.7 mph18.4 mph
4:00 PM41.2 °F21.6 °F46 %30.25 inWest (270°)12.7 mph20.7 mph
5:00 PM40.6 °F19.9 °F44 %30.27 inWNW (300°)9.2 mph
6:00 PM40.5 °F19.2 °F43 %30.30 inWNW (290°)10.4 mph
7:00 PM39.7 °F19.0 °F43 %30.32 inNW (310°)8.1 mph
8:00 PM39.0 °F20.0 °F34 %30.35 inNW (320°)4.6 mph
8:00 PM38.7 °F20.5 °F48 %30.35 inNW (320°)4.6 mph
9:00 PM36.5 °F20.1 °F52 %30.37 inNNW (340°)2.3 mph
10:00 PM34.2 °F20.8 °F58 %30.42 inNNW (330°)2.3 mph
11:00 PM31.8 °F21.7 °F66 %30.44 inNNW (340°)1.2 mph
Hourly data recorded from CXHA, located miles away from Put In Bay, Ohio







STORIES FROM OUR PARTNERS